Location: Oroua River
(40.4333°S, 175.4333°E)
Time: 13:49:33
(UTC+00:00)

Meteor 1-29 - Pass Details

Date: 03 February 2023
Orbit: 395 x 414 km, 97.8° (Epoch: 22 March)

Event Time Altitude Azimuth Distance (km) Brightness Sun altitude
Rises 16:12:45 0° 30° (NNE) 2,337 6.5 -13.5°
Reaches altitude 10° 16:14:49 10° 38° (NE) 1,478 5.6 -13.2°
Maximum altitude 16:17:45 36° 107° (ESE) 666 4.4 -12.7°
Drops below altitude 10° 16:20:42 10° 175° (S) 1,487 6.1 -12.2°
Sets 16:22:47 0° 184° (S) 2,353 7.0 -11.9°
